OBJECT G, 61233

Orbit data source: Space-Track

You're viewing an Uncataloged Satellite

Recently launched and/or uncataloged satellites may have evolving metadata. Metadata may include but not limited to: Owner, Maufacturer, Bus, Motor, and Mission.

OBJECT G, 61233 is a satellite owned by Guoxing (CN) in SSO that was launched on Tue, 24 Sep 2024 UTC via a JIELONG-3 launch vehicle from the Yellow Sea Launch Area, China (YSLA). Unknown objects in Earth's orbit typically refer to objects detected orbiting the Earth but have not yet been identified or cataloged. These objects could be anything from previously untracked satellites, spent rocket stages, debris from satellite collisions, or even natural meteoroids temporarily captured by Earth's gravity.

Loading next visibility...
Identifier
61233, 2024-173G
Orbit
SSO
Last TLE update
21 hours ago
Origin
Flag of CNGUOX (CN / PRC)
Manufacturer
GUOX/HISTAR
Mission
Operational Commercial Technology
Bus & Motor
XSD, Unknown motor
Mass
~25 kg wet, ~25 kg dry
Launch date (UTC)
2024-09-24 (7 months ago)
Launch vehicle
JIELONG-3
Launch site
Yellow Sea Launch Area, China (YSLA)
Object type
Unknown
Shape & HBR
Box + 3 Pan, 0.3 m
Radar Cross Section
0.135 m², Medium (>0.1 m² and < 1m²)

Expand to show TLE details & history

TLE from 21 hours ago
0 OBJECT G
1 61233U 24173G   25119.16623447  .00120474  00000-0  16190-2 0  9990
2 61233  97.3734 199.5575 0009344 212.0553 148.0135 15.57443468 33318
Epoch: 2025-04-29T03:59Z
Definitive object data (Epoch: 2025-04-29T03:59:22.658Z)
Latitude
-0.00003°
Longitude
-77.65671°
Altitude
403.572 km
Speed
7.665 km/s
True Right ascension
13h 18m 13s
True Declination
0° 00' 00"
Sunlit
Object was in full shadow at TLE epoch
Visualization TLE readout
Latitude
18.0893°
Longitude
105.6462°
Altitude
392.732 km
Speed
7.679 km/s
Apparent Right ascension
23h 19m 13s
Apparent Declination
-12° 40' 16"
Sunlit
Object is in daylight
Visualization observer readout
Local Sidereal Time
08:16:02
Azimuth
290.984° WNW
Elevation
-41.49°
Doppler factor
1
Orbital elements
Apogee altitude
398.3 km
Perigee altitude
385.648 km
Semi-major axis
6,770.111 km
Eccentricity
0.0009344
Inclination
97.3734°
RAAN
199.5575°
Arg. of periapsis
212.0553°
True anomaly
148.07016°
Mean anomaly
148.0135°
Eccentric anomaly
148.04184°
Mean motion
3.89627 °/min
BSTAR
0.001619
Orbital period
92.4 mins
Loading maneuver chart data...
Loading SW <> Apogee altitude chart data...
Loading historical data...
Loading historical data...
Loading historical data...
Loading historical data...
Loading historical data...
Loading historical data...
Loading historical data...

OBJECT G Visibility forecast

Observer location: undefined°, undefined°

Span
Click to sort rows by Start time (UTC) header in descending order
Start Az.
Max El. time (UTC)
Max El. Az.
Max El.
End time (UTC)
End Az.
4 mins2025-04-30 04:48:37.877Z118.96° SE2025-04-30 04:50:37.877Z63.19° ENE22.93°2025-04-30 04:52:37.877Z18.041° NNE
|